NOAA 16 DEB, 41372

Orbit data source: Space-Track

NOAA 16 DEB, 41372 is space debris in SSO originally from a launch on Thu, 21 Sep 2000 UTC launched from the Air Force Western Test Range (AFWTR). Debris objects in space refer to the collection of defunct objects orbiting the Earth. Examples of debris include non-operational satellites, rocket bodies, and fragments generated from explosions, collisions, or faulty payload assembly.

Loading next visibility...
Identifier
41372, 2000-055JR
Orbit
SSO
Country
Flag of USUS
Related business
Manufacturer
Unknown
Mission
Spacecraft
Bus & Motor
Unknown
Mass
Unknown
Launch date (UTC)
2000-09-21 (25 years ago)
Launch vehicle
Unknown
Launch site
Air Force Western Test Range (AFWTR)
Object type
Payload
Rocket body
Debris
Shape & HBR
Unknown shape, 0.1 m
Radar Cross Section
Small (<0.1 m²)

Expand to show TLE details & history
Last TLE update: 13 hours ago

TLE from 13 hours ago
0 NOAA 16 DEB
1 41372U 00055JR  25291.71727910  .00031859  00000-0  61807-2 0  9990
2 41372  98.9749 205.4472 0052080 347.7767  12.2164 14.62254774510717
Epoch: 2025-10-18T17:12Z
TLE epoch observation values (Epoch: 2025-10-18T17:12:52.914Z)
Latitude
-0.00007°
Longitude
-80.21755°
Altitude
652.911 km
Speed
7.55 km/s
True Right ascension
13h 41m 47s
True Declination
0° 00' 00"
Sunlit
Object was in daylight at epoch
Visualization orbit readout
Latitude
Unknown
Longitude
Unknown
Altitude
Unknown
Speed
Unknown
Apparent Right ascension
Unknown
Apparent Declination
Unknown
Sunlit
N/A
Visualization observer readout
Local Sidereal Time
00:34:45
Azimuth
Unknown
Elevation
Unknown
Doppler factor
Unknown
Orbital elements
Apogee altitude
719.793 km
Perigee altitude
646.244 km
Semi-major axis
7,061.155 km
Eccentricity
0.00521
Inclination
98.9749°
RAAN
205.4472°
Arg. of periapsis
347.7767°
True anomaly
12.34349°
Mean anomaly
12.2164°
Eccentric anomaly
12.27987°
Mean motion
3.65788 °/min
Orbital period
98.42 mins
BSTAR
0.0061807
Loading maneuver chart data...
Computing Atmospheric mass density...

Documentation

Showing up to 5 results
|